Location: De Har
(53.3413°N, 6.6858°E)
Time: 08:50:00
(UTC+00:00)

CZ-2C R/B - Pass Details

Date: 22 April 2026
Orbit: 781 x 868 km, 98.4° (Epoch: 15 May)

Event Time Altitude Azimuth Distance (km) Brightness Sun altitude
Exits shadow 01:30:24 15° 269° (W) 2,137 4.5 -19.8°
Maximum altitude 01:30:54 15° 275° (W) 2,126 4.5 -19.7°
Drops below altitude 10° 01:33:58 10° 310° (NW) 2,458 5.2 -19.5°
Sets 01:37:26 0° 333° (NNW) 3,379 6.3 -19.2°
